Theta_e
340 338 336 333 329 326 323 323 323 321 318 317 315 315 314 312 312 312 311 310 309 306
338 338 335 330 327 325 322 320 319 318 316 314 314 313 312 310 309 309 308 307 305 302
332 337 330 328 324 320 318 318 316 315 314 312 311 310 309 308 308 307 305 303 301 300
333 329 328 324 319 318 317 315 313 314 312 309 308 308 307 307 306 304 302 302 300 298
331 329 322 319 317 317 313 311 311 308 306 305 305 306 306 305 303 301 299 298 297 296
326 323 319 317 313 310 307 307 305 304 303 302 303 304 304 303 301 300 298 297 297 296
320 318 314 310 307 304 302 301 300 300 300 301 302 303 302 302 300 299 297 297 297 297
316 312 308 306 303 300 299 298 298 298 299 300 301 300 300 300 299 297 295 295 296 298
305 305 303 303 298 298 297 297 297 297 298 298 300 300 300 298 296 295 294 292 293 295
302 300 298 297 296 295 294 295 294 295 296 296 299 299 299 297 294 293 292 292 293 293
302 297 296 295 294 293 293 292 291 292 293 295 297 298 296 295 294 293 293 292 292 292
299 296 295 293 292 291 290 290 290 291 292 293 296 296 295 294 294 293 292 293 295 293
298 296 293 292 291 290 290 290 291 290 292 294 292 293 293 293 293 291 292 292 292 293
297 295 294 292 291 290 290 289 288 288 288 290 292 293 293 292 291 291 290 289 289 290
Wind_Speed
15 10 7 5 9 7 8 9 9 8 8 8 7 8 9 7 6 5 5 8 7 6
8 14 19 12 8 8 12 9 11 10 9 8 9 10 9 7 5 5 7 8 7 6
10 12 16 13 13 13 12 12 13 10 9 10 10 10 9 6 6 8 7 6 8 7
14 13 13 12 16 14 13 13 13 11 11 10 11 9 9 8 8 10 8 8 8 6
17 17 14 15 15 15 14 14 11 11 11 11 9 8 8 9 8 9 10 7 8 7
13 17 15 17 16 15 16 14 10 11 12 11 9 9 9 10 9 10 9 6 8 8
11 13 18 17 17 17 15 14 11 10 11 10 10 8 9 10 10 9 7 7 8 8
12 10 20 19 16 17 15 11 13 12 12 9 9 6 9 9 9 8 8 7 7 8
17 12 15 19 17 15 12 13 13 10 11 10 5 12 14 11 7 7 8 7 6 6
19 15 17 18 14 10 13 10 15 11 9 9 7 11 13 14 7 7 7 7 5 5
19 18 21 17 12 10 12 12 11 10 9 8 6 11 13 13 6 7 9 6 3 5
16 19 17 19 11 11 12 11 10 8 7 8 8 13 12 8 7 8 8 4 5 6
18 18 19 16 12 12 12 12 9 7 7 13 11 12 10 9 5 8 5 6 7 13
17 19 16 16 12 12 11 11 9 10 9 10 8 9 13 13 8 6 5 5 7 7
Wind_Direction
143 145 117 155 147 142 131 118 112 106 101 99 95 86 82 80 74 68 73 69 62 69
157 166 136 153 143 133 109 122 115 110 109 101 94 89 88 84 88 75 69 74 69 66
165 144 125 144 136 113 114 118 110 107 108 99 92 88 88 85 77 85 73 78 73 55
154 128 133 140 118 118 116 109 106 116 107 100 93 94 95 90 90 87 87 68 66 56
153 142 130 125 121 114 109 103 115 104 98 93 88 86 92 92 89 92 78 66 66 48
127 132 130 121 115 110 108 98 103 107 106 100 100 96 91 103 103 86 77 73 64 51
126 132 114 116 113 103 100 105 100 96 91 96 93 98 109 112 100 91 89 72 61 48
99 85 116 110 108 106 103 112 102 106 97 90 93 116 121 111 105 107 94 70 55 47
90 81 94 114 101 89 113 110 95 98 106 99 110 113 111 109 107 99 80 75 61 41
100 104 94 82 83 111 103 94 99 86 92 99 110 119 113 108 100 90 86 74 64 52
119 119 103 96 100 92 81 93 84 91 91 96 100 118 111 102 102 86 70 69 72 46
121 111 111 104 105 100 101 88 83 81 80 97 105 109 104 109 82 76 67 53 46 35
106 106 104 106 105 96 87 90 90 93 91 99 87 81 92 85 89 71 63 53 41 28
104 103 107 108 102 105 109 101 100 90 69 67 80 75 82 80 74 85 74 55 40 25